Location: Brno
(49.2000°N, 16.6333°E)
Time: 00:24:28
(UTC+01:00)

ISS - Pass Details

Date: 24 January 2019
Orbit: 403 x 411 km, 51.6° (Epoch: 17 February)

Event Time Altitude Azimuth Distance (km) Brightness Sun altitude
Rises 17:43:14 0° 203° (SSW) 2,321 0.6 -10.9°
Reaches altitude 10° 17:45:46 10° 182° (S) 1,467 -0.8 -11.3°
Maximum altitude 17:48:01 17° 139° (SE) 1,110 -1.9 -11.6°
Enters shadow 17:49:18 14° 111° (ESE) 1,242 -1.8 -11.8°
